Theta_e
344 347 347 347 346 346 346 343 342 338 335 333 333 335 337 338 339 339 337 335 335 334 333 333 332 334 336 336 334 330 332 326 327 326 330 332 329 334 334 331 327 322 325
342 346 347 346 346 346 346 345 344 339 335 334 333 336 338 339 337 338 338 339 336 335 334 335 336 335 335 336 330 328 330 329 335 333 327 329 336 339 335 329 335 321 330
340 343 346 346 346 346 346 345 344 343 340 340 340 340 338 339 338 338 338 340 339 336 338 334 334 331 334 332 330 331 331 332 341 340 343 329 326 341 338 332 323 322 328
338 342 344 345 345 345 345 345 344 344 344 343 343 342 340 337 337 338 337 338 339 340 338 340 334 330 330 330 331 330 338 342 344 344 346 337 336 329 335 330 323 329 334
337 339 341 342 343 343 342 343 343 343 343 343 342 342 340 338 337 339 340 340 340 339 340 340 336 329 332 334 334 337 342 344 345 345 345 343 338 331 331 323 328 337 328
339 337 338 339 340 340 341 341 341 341 342 341 341 341 340 338 336 338 338 338 342 341 339 339 342 332 333 334 333 335 339 341 343 344 344 342 342 334 331 324 325 331 323
338 336 336 337 337 338 339 340 340 339 339 339 339 339 339 338 337 339 339 337 338 339 340 340 340 340 338 332 332 334 341 344 341 344 343 339 341 337 328 325 324 332 327
349 342 336 336 336 336 336 337 338 339 338 337 337 338 339 339 339 340 339 337 336 337 337 339 340 340 338 334 333 333 343 341 344 343 341 340 339 331 329 324 322 335 328
345 340 337 336 336 337 336 336 337 337 337 337 336 336 338 339 339 339 337 336 336 336 336 338 341 340 340 333 333 332 340 343 344 345 343 341 342 330 327 328 332 324 326
352 349 338 337 337 337 337 337 337 337 337 336 334 336 338 337 337 336 336 337 338 338 336 338 340 340 340 338 334 330 339 344 343 344 346 343 344 342 326 331 329 323 323
350 351 347 342 338 338 338 336 334 333 335 336 335 335 333 334 339 341 339 340 343 338 339 339 339 340 340 341 333 334 335 342 345 344 347 346 344 340 329 323 330 325 323
352 353 350 349 344 345 341 344 345 339 338 340 338 338 344 345 347 347 347 347 343 339 335 338 339 340 340 340 336 335 337 338 342 346 346 345 346 343 338 329 332 333 326
352 352 352 350 349 345 344 348 347 347 347 346 348 345 341 345 348 348 347 345 345 339 334 335 337 338 340 341 342 340 335 338 344 346 346 346 346 344 342 337 329 330 330
351 352 353 351 350 347 348 341 346 348 348 345 349 348 346 346 346 344 348 346 344 342 341 341 339 341 340 346 346 345 345 338 345 346 346 346 346 345 341 339 336 330 329
351 351 350 352 351 351 349 348 345 343 344 345 343 344 344 344 344 348 347 346 344 341 340 345 344 335 343 347 344 345 344 342 344 345 346 345 344 345 344 340 338 338 332
350 350 350 351 351 353 350 345 346 344 345 346 345 345 336 343 342 340 342 343 342 336 343 343 337 340 346 345 346 345 343 345 347 346 346 344 344 342 342 342 339 339 338
352 352 351 352 352 343 343 348 348 345 345 345 343 345 345 346 343 339 339 340 340 339 338 339 337 339 345 347 345 347 347 344 344 346 346 346 344 343 344 343 341 334 338
352 352 353 355 354 350 346 347 347 346 345 344 344 343 344 341 338 338 342 338 341 338 339 341 337 336 343 345 346 346 347 348 345 344 345 346 345 344 344 343 343 342 335
353 353 354 355 352 354 347 348 350 345 342 342 342 342 341 341 339 338 339 338 339 341 341 340 344 345 344 344 344 345 345 345 345 344 345 344 344 346 343 344 344 345 345
354 355 355 355 355 351 348 348 344 339 339 340 339 339 338 340 339 339 337 337 340 343 344 344 343 343 343 342 342 342 342 342 343 344 343 345 348 345 343 345 344 346 347
356 357 358 357 355 353 350 347 338 337 338 338 337 337 339 340 339 338 339 343 341 340 343 343 343 338 343 342 344 345 343 342 342 343 343 343 347 346 345 344 342 344 342
357 358 359 357 355 356 350 348 340 335 337 337 337 342 341 342 343 343 344 346 346 344 344 345 343 343 341 341 343 346 345 344 342 340 342 342 342 344 346 345 345 344 344
357 358 360 357 354 351 349 346 341 336 335 336 343 343 346 341 342 341 344 342 341 341 342 339 342 344 342 341 341 342 344 343 341 341 342 343 343 342 344 345 344 343 344
357 359 361 355 356 350 348 340 337 337 336 341 344 344 343 343 341 341 342 343 344 341 342 341 340 340 340 341 340 341 341 342 343 342 342 344 345 345 345 344 343 337 342
358 360 360 356 357 352 351 338 338 339 344 347 345 342 340 342 343 344 342 336 339 342 341 341 341 342 342 341 340 341 341 341 342 343 342 343 345 345 344 342 342 343 342
359 360 361 356 357 352 349 340 339 342 348 350 348 341 345 343 345 345 343 336 338 338 338 339 342 342 341 342 343 343 343 342 342 342 343 343 344 343 343 343 342 341 341
Wind_Speed
19 20 18 18 18 18 17 17 16 15 15 14 14 14 13 13 14 13 14 13 14 11 12 11 11 11 12 12 11 10 10 11 13 13 16 17 17 19 17 15 12 14 14
24 21 18 17 18 18 17 16 15 15 15 13 12 13 11 12 12 12 11 10 12 10 10 11 11 11 11 12 11 13 15 16 18 16 16 13 14 15 16 14 12 13 15
23 21 19 17 17 17 16 15 14 14 14 12 11 12 11 10 10 11 11 11 9 9 10 9 9 9 9 10 14 16 17 18 21 19 15 11 10 11 15 11 11 13 13
22 20 19 18 17 16 15 13 13 13 12 12 10 9 11 9 10 10 12 14 13 8 9 9 8 8 8 11 15 16 20 19 17 13 10 10 10 10 10 11 13 13 12
20 18 18 17 16 15 14 13 12 12 11 11 9 8 7 7 7 9 8 6 6 8 7 6 7 7 9 12 16 19 20 17 15 12 6 6 7 7 8 9 10 13 11
18 16 16 16 15 14 13 11 11 11 11 10 9 8 7 7 4 4 6 5 5 5 6 6 5 7 8 11 15 17 16 16 16 13 10 6 3 5 3 7 10 9 10
16 16 14 14 14 13 12 11 10 10 9 9 8 7 6 6 6 3 3 5 6 5 4 4 3 5 7 9 14 17 17 14 14 11 7 2 2 4 2 4 7 9 8
8 9 11 12 11 11 10 10 10 9 8 6 6 6 6 5 4 3 2 1 3 4 4 3 3 4 5 7 12 17 17 15 13 9 8 1 2 3 2 5 7 7 7
9 11 9 10 9 9 8 8 8 8 7 6 5 5 5 5 4 2 2 1 1 2 3 3 3 3 5 5 10 17 16 14 13 9 8 2 5 2 3 5 7 7 7
9 7 7 7 7 7 7 6 5 5 6 6 5 5 4 4 3 3 2 2 2 2 2 3 4 5 6 6 8 14 17 13 12 10 5 7 5 3 3 7 6 7 7
6 4 6 5 3 5 6 4 1 3 5 5 4 4 3 4 5 1 0 1 3 5 4 3 3 4 5 7 9 12 14 14 11 13 7 6 8 4 2 7 8 7 7
12 8 4 4 5 4 2 5 1 3 1 0 1 2 0 4 3 3 7 3 2 6 6 6 5 5 5 6 8 9 11 14 13 8 8 11 10 7 3 5 9 8 8
10 9 5 4 5 4 5 6 2 3 3 4 2 2 2 3 4 6 4 5 3 2 4 7 6 8 6 6 6 6 7 12 13 6 9 11 11 8 6 7 7 8 8
14 10 7 3 4 2 4 6 4 10 11 9 13 9 8 7 11 12 11 10 5 4 4 4 10 14 8 6 6 8 7 13 11 9 12 14 15 9 7 9 8 8 9
15 11 5 5 5 5 8 8 9 12 15 17 16 16 19 12 14 10 9 8 10 9 11 10 15 12 16 14 9 9 10 10 11 11 10 12 6 9 8 10 12 10 9
17 13 10 8 9 12 11 8 11 12 13 14 17 15 12 17 11 15 12 12 13 13 12 11 14 22 11 14 12 11 11 11 12 16 12 12 10 9 10 10 13 12 10
14 13 12 15 11 10 11 11 14 14 16 19 19 11 16 13 14 11 11 11 14 14 12 13 20 22 19 15 15 15 14 15 16 17 15 13 13 12 10 12 11 14 14
15 12 12 12 12 9 11 11 14 16 16 15 15 18 16 14 11 13 9 10 12 12 13 14 17 18 20 16 20 17 15 18 17 21 19 16 18 16 16 15 15 13 15
14 14 15 15 12 10 10 11 15 16 11 6 5 11 17 21 23 16 11 11 8 10 10 10 8 14 13 17 18 18 21 22 20 19 21 21 20 21 16 17 15 14 13
16 15 14 15 13 13 10 9 12 8 6 6 5 1 3 5 14 13 9 4 7 7 7 3 7 12 17 15 15 17 18 20 24 26 24 22 23 19 22 21 18 15 14
16 17 15 12 12 8 8 5 7 9 6 7 7 6 5 5 5 5 4 5 6 7 2 1 7 5 9 11 14 16 18 22 20 21 22 26 26 24 21 19 21 20 16
19 16 15 10 8 7 9 5 4 5 4 6 6 7 7 5 2 2 5 4 5 5 4 4 7 10 12 14 17 16 21 21 22 21 23 22 27 25 23 18 21 18 15
21 18 15 10 8 8 12 6 5 5 1 2 4 5 5 6 6 3 3 5 6 6 7 9 11 12 13 12 12 15 6 7 11 11 9 17 17 17 19 20 21 23 21
20 16 13 9 10 10 10 7 5 7 4 0 4 3 3 3 3 5 9 10 11 9 10 11 11 15 17 19 18 19 20 21 13 7 6 8 15 14 14 12 14 16 18
20 18 12 9 10 11 7 8 4 6 2 3 2 3 1 5 2 4 8 9 8 11 9 8 7 6 7 10 12 12 14 14 17 20 13 4 11 9 7 5 4 6 9
21 19 12 10 9 7 8 9 5 7 4 5 3 5 3 2 4 6 10 14 11 7 5 4 4 5 4 5 6 8 9 9 7 11 12 8 9 4 9 5 1 3 6
Wind_Direction
152 144 142 133 130 129 125 122 125 127 131 125 122 115 112 109 106 110 104 107 103 104 109 104 100 105 106 108 107 107 107 105 107 114 122 118 114 107 104 95 89 95 103
149 144 143 134 131 134 128 126 126 128 132 129 126 117 115 113 109 104 93 93 96 105 105 107 104 106 106 108 100 106 107 110 109 104 97 106 108 112 110 95 92 97 107
143 142 140 135 133 133 132 128 129 132 137 135 134 124 119 119 112 101 91 101 104 108 105 104 109 113 113 109 104 115 112 116 114 108 83 88 96 101 118 105 105 100 104
142 142 140 138 135 134 133 133 134 138 139 139 140 133 128 131 128 118 106 97 88 102 108 116 107 114 115 113 115 119 115 113 112 102 80 89 49 105 117 110 111 114 105
132 141 139 139 137 136 135 137 140 143 144 146 147 146 133 135 135 128 128 123 103 89 100 111 113 116 119 116 121 123 119 112 105 96 126 133 65 101 120 113 117 117 108
118 138 139 140 139 138 139 140 143 146 152 155 156 159 156 150 150 137 126 107 111 120 111 98 131 116 123 122 126 135 128 116 110 112 114 122 53 84 115 118 125 118 111
128 133 140 140 140 140 141 144 145 147 154 157 157 166 173 172 167 163 129 116 128 140 142 127 108 131 127 129 135 140 137 132 119 107 154 165 335 319 203 153 135 128 118
138 127 144 140 140 140 141 150 153 156 158 160 161 169 182 172 177 173 149 135 129 147 145 164 151 155 157 144 144 152 147 145 138 146 166 216 296 354 175 165 152 147 139
121 133 146 141 144 147 149 157 161 160 163 165 176 179 186 182 180 202 251 264 203 182 146 181 160 184 181 172 161 160 161 155 138 148 181 242 282 19 226 185 168 163 157
139 124 135 138 154 160 157 162 165 176 178 179 189 186 185 193 192 211 222 303 318 294 226 211 183 206 207 200 181 169 168 165 152 155 207 239 267 293 253 218 194 180 174
165 113 90 67 159 174 160 139 140 223 217 201 204 191 185 192 171 211 206 100 340 334 299 265 243 218 237 216 194 180 182 178 171 178 215 235 240 260 268 231 207 193 186
173 163 119 68 79 26 194 134 8 227 280 60 354 203 93 175 254 301 258 276 13 330 314 298 278 242 242 234 209 201 192 188 196 188 228 241 258 249 275 260 218 211 203
186 176 145 117 94 135 172 201 209 160 219 199 258 177 179 177 278 224 234 244 266 326 294 282 275 274 238 220 204 220 209 201 204 192 232 246 243 242 261 264 238 222 210
188 172 142 117 155 182 217 235 211 244 239 269 232 219 204 229 261 235 239 240 267 269 267 277 316 289 242 197 210 249 255 216 212 218 245 252 243 252 247 255 252 229 218
183 188 174 178 199 208 236 217 230 252 240 247 224 228 227 238 248 247 238 243 275 273 259 263 266 265 242 223 222 244 231 204 217 238 251 245 257 244 260 256 259 247 231
183 201 211 237 221 227 249 270 252 265 245 244 248 239 218 214 238 233 247 255 258 271 268 283 275 272 253 223 232 235 220 237 239 237 248 238 255 260 266 274 256 257 240
199 201 212 219 240 254 238 246 272 280 265 256 258 224 203 208 224 230 242 252 262 267 267 271 308 263 241 223 237 246 230 237 252 246 248 240 259 273 267 278 265 256 255
188 203 216 231 258 265 265 293 303 296 287 271 246 224 210 217 232 249 253 283 262 267 265 269 286 225 238 232 242 244 232 237 250 233 244 248 254 259 260 267 278 263 251
204 208 215 237 254 265 273 315 329 321 298 250 227 227 237 243 249 251 253 286 284 275 306 265 240 237 252 255 248 245 248 251 253 232 232 244 255 255 249 257 266 276 267
206 213 229 244 249 259 272 318 344 13 57 137 130 170 249 214 217 237 253 301 301 282 301 289 274 253 253 250 253 259 257 253 254 254 248 239 247 258 256 257 262 265 270
211 219 233 244 245 253 254 291 345 11 71 88 103 83 65 115 176 223 281 310 314 304 215 253 293 208 254 251 262 261 271 267 260 254 249 244 245 238 248 250 254 264 265
209 222 235 244 251 254 233 260 297 333 46 85 51 51 63 79 84 360 355 330 290 304 310 319 296 270 266 262 259 254 267 273 273 270 259 251 247 243 248 257 244 243 239
207 219 232 254 249 242 222 232 243 226 159 74 53 28 25 15 5 24 314 287 302 299 288 243 255 267 266 253 256 257 255 260 286 296 281 248 244 242 243 242 256 256 257
206 212 232 247 253 245 224 223 204 199 193 288 354 10 348 11 345 313 318 309 303 288 284 282 280 276 276 278 277 270 266 259 265 284 355 254 231 220 229 241 252 272 248
203 210 222 248 254 238 214 216 204 170 173 302 295 58 57 29 355 319 334 324 313 310 292 286 282 271 279 283 278 271 263 257 252 251 274 244 213 196 204 231 165 211 215
201 207 204 247 249 227 243 218 195 175 209 250 320 14 34 44 258 318 339 339 322 328 340 299 307 318 314 307 309 288 278 262 254 246 236 221 216 180 204 209 215 251 208